AJISAI (EGS)

Last updated on Tue Jul 01 2025 00:02:14 GMT+0000 (Coordinated Universal Time)

1 16908U 86061A 25181.55996626 -.00000107 00000+0 -69928-4 0 9997 2 16908 50.0069 148.6381 0011371 5.2514 102.6172 12.44512654436609
UTC large
Height (km)
Speed (km/s)
/
Latitude / Longitude
Inclination (degrees)
Orbital Period (minutes)
Azimuth
Elevation
Range (km)
Doppler Factor

Next 0 passes for location: London (51.5072 / 0.1276)

Sorry there are no passes over London.